DW1347 Weather Reports


Display with metric or nautical units.
time (UTC)temp
F
wind
direction
speed
MPH
gust
MPH
rain 1hr
in
rain 24hr
in
rain mn
in
humidity
%
barometer
mb
20260506073304 25 275 0.0 0.0 0.00 0.00 0.00 99 1020.8
20260506072800 26 275 0.0 0.0 0.00 0.00 0.00 99 1020.6
20260506072258 26 274 0.0 0.0 0.00 0.00 0.00 99 1020.8
20260506071755 26 274 0.0 0.0 0.00 0.00 0.00 99 1020.9
20260506071253 26 274 0.0 0.0 0.00 0.00 0.00 99 1021.3
20260506070744 26 274 0.0 0.0 0.00 0.00 0.00 99 1020.9
20260506070241 26 274 0.0 0.0 0.00 0.00 0.00 99 1021.3
20260506062218 26 274 0.0 0.0 0.00 0.00 0.00 99 1020.4
20260506061714 26 274 0.0 0.0 0.00 0.00 0.00 99 1020.4
20260506061212 26 274 0.0 0.0 0.00 0.00 0.00 99 1020.2
20260506060711 26 274 0.0 0.0 0.00 0.00 0.00 99 1020.3
20260506060207 26 274 0.0 0.0 0.00 0.00 0.00 99 1020.4
20260506051139 26 275 0.0 0.0 0.00 0.02 0.02 99 1020.6
20260506050638 26 275 0.0 0.0 0.00 0.02 0.02 99 1019.9
20260506050134 26 275 0.0 0.0 0.00 0.02 0.02 99 1020.2
20260506045126 26 275 0.0 0.0 0.00 0.02 0.02 99 1020.3
20260506044625 26 275 0.0 0.0 0.00 0.02 0.02 99 1020.3
20260506044122 26 275 0.0 0.0 0.00 0.02 0.02 99 1020.3
20260506043619 26 275 0.0 0.0 0.00 0.02 0.02 99 1020.4
20260506043117 26 275 0.0 0.0 0.00 0.02 0.02 99 1020.3
20260506042616 26 275 0.0 0.0 0.00 0.02 0.02 99 1020.2
20260506042113 26 275 0.0 0.0 0.00 0.02 0.02 99 1020.2
20260506041612 26 275 0.0 0.0 0.00 0.02 0.02 99 1020.2
20260506041108 26 275 0.0 0.0 0.00 0.02 0.02 99 1020.2
20260506040606 26 276 0.0 0.0 0.00 0.02 0.02 99 1020.6
20260506035559 26 276 0.0 0.0 0.00 0.02 0.02 99 1020.2
20260506035056 26 276 0.0 0.0 0.00 0.02 0.02 99 1019.9
20260506034553 26 276 0.0 0.0 0.00 0.02 0.02 99 1019.9
20260506034050 26 276 0.0 0.0 0.00 0.02 0.02 99 1020.1
20260506033547 26 276 0.0 0.0 0.00 0.02 0.02 99 1020.1
20260506033044 26 276 0.0 0.0 0.00 0.02 0.02 99 1019.8
20260506032542 26 276 0.0 0.0 0.00 0.02 0.02 99 1019.8
20260506032038 26 276 0.0 0.0 0.00 0.02 0.02 99 1019.8
20260506031536 26 276 0.0 0.0 0.00 0.02 0.02 99 1019.9
20260506031033 26 276 0.0 0.0 0.00 0.02 0.02 99 1019.7
20260506030531 26 276 0.0 0.0 0.00 0.02 0.02 99 1019.4
20260506030028 26 276 0.0 0.0 0.00 0.02 0.02 99 1019.3
20260506025525 26 276 0.0 0.0 0.00 0.02 0.02 99 1019.6
20260506025021 26 276 0.0 0.0 0.00 0.02 0.02 99 1019.2
20260506024518 26 277 0.0 0.0 0.00 0.02 0.02 99 1019.2
20260506024014 26 276 0.0 0.0 0.00 0.02 0.02 99 1019.3
20260506023510 26 277 0.0 0.0 0.00 0.02 0.02 99 1019.0
20260506023008 26 277 0.0 0.0 0.00 0.02 0.02 99 1019.2
20260506022505 26 277 0.0 0.0 0.00 0.02 0.02 99 1019.0
20260506022003 26 277 0.0 0.0 0.00 0.02 0.02 99 1018.9
20260506021500 26 277 0.0 0.0 0.00 0.02 0.02 99 1018.7
20260506020957 26 277 0.0 0.0 0.00 0.02 0.02 99 1019.0
20260506020455 26 277 0.0 0.0 0.00 0.02 0.02 99 1018.9
20260506015951 26 278 0.0 0.0 0.00 0.02 0.02 99 1018.9
20260506015449 26 247 0.0 0.0 0.00 0.02 0.02 99 1018.7
20260506014946 27 234 0.0 0.0 0.00 0.02 0.02 99 1018.4
20260506014443 27 229 0.0 0.0 0.00 0.02 0.02 99 1018.2
20260506013939 27 232 0.0 0.0 0.00 0.02 0.02 99 1018.4
20260506013438 26 232 0.0 0.0 0.00 0.02 0.02 99 1018.8
20260506012933 27 0 0.0 0.0 0.00 0.02 0.02 99 1018.3
20260506012430 27 334 0.0 0.0 0.00 0.02 0.02 99 1018.3
20260506011927 27 270 1.0 1.0 0.00 0.02 0.02 99 1018.2
20260506011424 27 284 0.0 0.0 0.00 0.02 0.02 99 1018.3
20260506010921 27 228 0.0 0.0 0.00 0.02 0.02 99 1018.2
20260506010420 28 231 0.0 0.0 0.00 0.02 0.02 99 1018.3
20260506005915 28 233 0.0 0.0 0.00 0.02 0.02 99 1018.4
20260506005414 28 239 0.0 1.0 0.00 0.02 0.02 99 1018.3
20260506004909 28 346 2.0 2.0 0.00 0.02 0.02 99 1018.3
20260506004407 28 284 2.0 2.0 0.00 0.02 0.02 99 1017.9
20260506003902 28 21 2.0 2.0 0.00 0.02 0.02 99 1017.9
20260506003359 28 8 0.0 1.0 0.00 0.02 0.02 99 1018.0
20260506002856 28 279 0.0 0.0 0.00 0.02 0.02 99 1017.9
20260506002352 28 322 1.0 2.0 0.00 0.02 0.02 99 1018.2
20260506001848 29 233 0.0 0.0 0.00 0.02 0.02 99 1018.0
20260506001344 29 233 1.0 1.0 0.00 0.02 0.02 99 1017.9
20260506000842 29 333 2.0 2.0 0.00 0.02 0.02 99 1017.7
20260506000340 30 278 2.0 3.0 0.00 0.02 0.02 99 1017.7
20260505235836 29 218 0.0 0.0 0.00 0.02 0.02 99 1017.5
20260505235334 29 326 0.0 1.0 0.00 0.02 0.02 99 1017.7
20260505234830 30 6 1.0 2.0 0.00 0.02 0.02 99 1017.7
20260505234328 30 268 1.0 1.0 0.00 0.02 0.02 99 1017.5
20260505233825 29 232 1.0 1.0 0.00 0.02 0.02 99 1017.4
20260505233323 30 227 1.0 1.0 0.00 0.02 0.02 99 1017.4
20260505232820 30 312 1.0 1.0 0.00 0.02 0.02 99 1017.4
20260505232317 30 302 3.0 5.0 0.00 0.02 0.02 99 1017.4
20260505231814 30 47 2.0 2.0 0.00 0.02 0.02 99 1017.5
20260505231312 30 265 0.0 1.0 0.00 0.02 0.02 99 1017.8
20260505230809 30 252 3.0 3.0 0.00 0.02 0.02 99 1017.7
20260505230306 30 304 3.0 3.0 0.00 0.02 0.02 99 1017.3
20260505225803 31 321 1.0 1.0 0.00 0.02 0.02 99 1017.0
20260505225300 31 288 4.0 5.0 0.00 0.02 0.02 99 1016.6
20260505224755 32 296 3.0 3.0 0.00 0.02 0.02 99 1017.0
20260505224254 32 352 3.0 3.0 0.00 0.02 0.02 99 1016.9
20260505223751 32 258 3.0 3.0 0.00 0.02 0.02 99 1017.4
20260505223247 32 220 0.0 1.0 0.00 0.02 0.02 99 1017.4
20260505222743 32 228 0.0 0.0 0.00 0.02 0.02 99 1017.0
20260505222239 32 235 1.0 1.0 0.00 0.02 0.02 99 1017.0
20260505221736 32 236 3.0 3.0 0.00 0.02 0.02 99 1016.9
20260505221233 32 226 0.0 0.0 0.00 0.02 0.02 99 1016.8
20260505220730 32 349 2.0 2.0 0.00 0.02 0.02 99 1016.5
20260505220228 32 313 1.0 2.0 0.00 0.02 0.02 99 1016.9
20260505215726 32 227 0.0 0.0 0.00 0.02 0.02 99 1016.6
20260505215223 32 74 3.0 3.0 0.07 0.02 0.02 99 1016.6
20260505214721 33 281 0.0 0.0 0.07 0.02 0.02 99 1016.8
20260505214218 33 231 1.0 1.0 0.00 0.01 0.01 99 1016.8
20260505213715 33 223 0.0 0.0 0.00 0.01 0.01 99 1016.9
20260505213212 32 266 1.0 1.0 0.00 0.01 0.01 99 1016.8
20260505212708 33 342 3.0 3.0 0.00 0.01 0.01 99 1016.9
20260505212206 32 68 2.0 2.0 0.00 0.01 0.01 99 1016.8
20260505211702 32 227 0.0 1.0 0.00 0.01 0.01 99 1016.6
20260505211200 33 60 2.0 3.0 0.00 0.01 0.01 99 1017.0
20260505210656 32 223 1.0 1.0 0.00 0.01 0.01 99 1017.0
20260505210153 32 28 2.0 2.0 0.00 0.01 0.01 99 1017.4
20260505205651 32 187 2.0 2.0 0.00 0.01 0.01 99 1017.3
20260505205149 33 4 5.0 7.0 0.00 0.01 0.01 99 1017.5
20260505204645 34 46 3.0 3.0 0.00 0.01 0.01 99 1017.3
20260505204143 33 66 3.0 3.0 0.00 0.01 0.01 99 1017.2
20260505203640 33 77 0.0 1.0 0.00 0.01 0.01 99 1017.5
20260505203137 33 6 3.0 6.0 0.00 0.01 0.01 99 1017.8
20260505202632 33 66 3.0 3.0 0.00 0.01 0.01 98 1017.9
20260505202128 34 21 6.0 8.0 0.00 0.01 0.01 98 1017.7
20260505201625 34 255 1.0 1.0 0.00 0.01 0.01 97 1017.5
20260505201117 35 218 0.0 0.0 0.00 0.01 0.01 98 1017.3
20260505200615 34 205 2.0 3.0 0.00 0.01 0.01 97 1017.5
20260505200112 34 166 1.0 2.0 0.00 0.01 0.01 98 1017.8
20260505195608 34 278 1.0 1.0 0.00 0.01 0.01 98 1017.7
20260505195106 34 296 3.0 5.0 0.00 0.01 0.01 97 1017.9
20260505194602 34 92 2.0 3.0 0.00 0.01 0.01 98 1017.9
20260505194058 33 203 1.0 1.0 0.00 0.01 0.01 98 1017.8
20260505193555 34 30 1.0 2.0 0.00 0.01 0.01 97 1017.9
20260505193052 34 72 5.0 7.0 0.00 0.01 0.01 98 1017.8
20260505192551 33 131 1.0 2.0 0.00 0.01 0.01 98 1018.0
20260505192048 33 238 3.0 3.0 0.00 0.01 0.01 99 1017.8
20260505191546 33 52 0.0 1.0 0.00 0.01 0.01 99 1017.7
20260505191044 33 165 0.0 1.0 0.00 0.01 0.01 99 1018.2
20260505190538 33 262 0.0 1.0 0.00 0.01 0.01 99 1018.0
20260505190034 33 92 2.0 2.0 0.00 0.01 0.01 99 1018.2
20260505185531 34 225 0.0 1.0 0.00 0.01 0.01 99 1018.3
20260505185028 33 229 3.0 3.0 0.00 0.01 0.01 99 1018.0
20260505184524 33 278 2.0 2.0 0.00 0.01 0.01 99 1018.3
20260505184022 33 265 2.0 2.0 0.00 0.01 0.01 99 1018.2
20260505183518 33 222 1.0 2.0 0.00 0.01 0.01 99 1018.2
20260505183015 33 258 3.0 3.0 0.00 0.01 0.01 99 1018.3
20260505182512 33 203 3.0 3.0 0.00 0.01 0.01 99 1018.4
20260505182008 32 239 2.0 2.0 0.00 0.01 0.01 99 1018.5
20260505181505 32 303 1.0 1.0 0.00 0.01 0.01 99 1018.5
20260505181002 32 60 2.0 3.0 0.00 0.01 0.01 99 1018.7
20260505180458 32 196 5.0 6.0 0.00 0.01 0.01 99 1018.7
20260505175955 32 292 0.0 1.0 0.00 0.01 0.01 99 1018.8
20260505175445 32 167 2.0 3.0 0.00 0.01 0.01 99 1018.5
20260505174941 32 323 0.0 1.0 0.00 0.01 0.01 99 1019.0
20260505174434 32 334 1.0 2.0 0.00 0.01 0.01 99 1018.8
20260505173929 32 88 0.0 1.0 0.00 0.01 0.01 99 1018.9
20260505173426 32 28 2.0 3.0 0.00 0.01 0.01 99 1018.8
20260505172923 32 219 0.0 0.0 0.00 0.01 0.01 99 1018.9
20260505172422 32 185 0.0 0.0 0.00 0.01 0.01 99 1018.7
20260505171920 32 247 2.0 2.0 0.00 0.01 0.01 99 1018.9
20260505171418 32 221 0.0 0.0 0.00 0.01 0.01 99 1019.0
20260505170914 32 170 3.0 3.0 0.00 0.01 0.01 99 1019.0
20260505170411 32 32 1.0 2.0 0.00 0.01 0.01 99 1018.9
20260505165906 32 241 1.0 1.0 0.00 0.01 0.01 99 1019.0
20260505165403 32 89 3.0 3.0 0.00 0.01 0.01 99 1018.9
20260505164858 32 170 1.0 2.0 0.00 0.01 0.01 99 1018.7
20260505164355 32 231 0.0 0.0 0.00 0.01 0.01 99 1018.9
20260505163853 32 212 0.0 1.0 0.00 0.01 0.01 99 1019.3
20260505163352 32 238 0.0 0.0 0.00 0.01 0.01 99 1019.2
20260505162850 32 33 1.0 2.0 0.00 0.01 0.01 99 1019.2
20260505162345 31 158 2.0 2.0 0.00 0.01 0.01 99 1019.0
20260505161843 32 353 2.0 3.0 0.00 0.01 0.01 99 1019.2
20260505161340 32 186 0.0 1.0 0.00 0.01 0.01 99 1019.7
20260505160837 32 218 0.0 1.0 0.00 0.01 0.01 99 1019.4
20260505160335 31 223 1.0 1.0 0.00 0.01 0.01 99 1019.4
20260505153314 31 265 1.0 1.0 0.00 0.01 0.01 99 1019.3
20260505152811 31 180 0.0 0.0 0.00 0.01 0.01 99 1019.6
20260505152308 31 25 2.0 3.0 0.00 0.01 0.01 99 1019.4
20260505151802 31 149 2.0 2.0 0.00 0.01 0.01 99 1019.4
20260505151259 31 165 2.0 2.0 0.00 0.01 0.01 99 1019.6
20260505150756 31 351 3.0 3.0 0.00 0.01 0.01 99 1019.4
20260505150253 31 15 5.0 6.0 0.00 0.01 0.01 99 1019.7
20260505140217 31 341 3.0 3.0 0.00 0.00 0.00 99 1019.8
20260505130142 31 320 3.0 3.0 0.00 0.00 0.00 99 1019.3
20260505124631 31 341 1.0 1.0 0.00 0.00 0.00 99 1019.0
20260505124128 31 17 3.0 3.0 0.00 0.00 0.00 99 1019.0
20260505123623 31 291 2.0 2.0 0.00 0.00 0.00 99 1019.2
20260505123120 32 252 4.0 6.0 0.00 0.00 0.00 99 1019.2
20260505122617 32 284 2.0 2.0 0.00 0.00 0.00 99 1018.8
20260505122114 32 272 2.0 2.0 0.00 0.00 0.00 99 1018.9
20260505121605 32 253 0.0 0.0 0.00 0.00 0.00 99 1018.9
20260505121102 32 13 2.0 3.0 0.00 0.00 0.00 99 1018.9
20260505120558 32 225 0.0 0.0 0.00 0.00 0.00 99 1019.0
20260505120054 32 40 3.0 5.0 0.00 0.00 0.00 99 1019.0
20260505115548 32 214 1.0 2.0 0.00 0.00 0.00 99 1019.2
20260505115046 32 283 1.0 2.0 0.00 0.00 0.00 99 1018.8
20260505114543 32 132 0.0 1.0 0.00 0.00 0.00 99 1019.2
20260505114039 33 299 4.0 5.0 0.00 0.00 0.00 99 1018.8
20260505113535 33 294 2.0 3.0 0.00 0.00 0.00 99 1018.8
20260505113032 33 271 3.0 5.0 0.00 0.00 0.00 99 1018.4
20260505112528 33 320 2.0 5.0 0.00 0.00 0.00 99 1018.5
20260505112026 34 12 1.0 2.0 0.00 0.00 0.00 99 1018.4
20260505111520 34 41 6.0 7.0 0.00 0.00 0.00 99 1018.3
20260505111017 35 241 0.0 0.0 0.00 0.00 0.00 99 1018.0
20260505110513 35 329 1.0 1.0 0.00 0.00 0.00 99 1017.9
20260505101945 38 260 0.0 1.0 0.00 0.00 0.00 99 1017.9
20260505101438 38 7 2.0 3.0 0.00 0.00 0.00 99 1017.9
20260505100934 38 26 2.0 3.0 0.00 0.00 0.00 99 1017.7
20260505100431 38 284 0.0 0.0 0.00 0.00 0.00 99 1017.4
20260505095927 38 228 0.0 0.0 0.00 0.00 0.00 99 1017.7
20260505095424 38 226 0.0 0.0 0.00 0.00 0.00 99 1017.7
20260505094920 38 232 0.0 0.0 0.00 0.00 0.00 99 1017.7
20260505094418 38 229 0.0 0.0 0.00 0.00 0.00 99 1017.4
20260505093913 38 229 0.0 0.0 0.00 0.00 0.00 99 1017.4
20260505093411 38 242 0.0 0.0 0.00 0.00 0.00 99 1017.4
20260505092908 38 217 0.0 0.0 0.00 0.00 0.00 99 1018.2
20260505092406 38 194 0.0 0.0 0.00 0.00 0.00 99 1017.9
20260505091903 38 224 0.0 0.0 0.00 0.00 0.00 99 1017.8
20260505091400 38 222 0.0 0.0 0.00 0.00 0.00 99 1017.8
20260505090858 38 224 0.0 0.0 0.00 0.00 0.00 99 1018.0
20260505090356 38 221 0.0 0.0 0.00 0.00 0.00 99 1017.5
20260505085853 38 224 0.0 0.0 0.00 0.00 0.00 99 1017.8
20260505085351 38 222 0.0 0.0 0.00 0.00 0.00 99 1017.8
20260505084849 38 218 0.0 0.0 0.00 0.00 0.00 99 1017.9
20260505084347 38 214 0.0 0.0 0.00 0.00 0.00 99 1017.9
20260505083845 38 222 0.0 0.0 0.00 0.00 0.00 99 1017.8
20260505083342 38 222 0.0 0.0 0.00 0.00 0.00 99 1018.2
20260505082838 38 216 0.0 0.0 0.00 0.00 0.00 99 1018.0
20260505082334 38 223 0.0 0.0 0.00 0.00 0.00 99 1018.0
20260505081831 38 218 0.0 0.0 0.00 0.00 0.00 99 1018.2
20260505081327 38 222 0.0 0.0 0.00 0.00 0.00 99 1018.3
20260505080824 38 222 0.0 0.0 0.00 0.00 0.00 99 1018.2
20260505080320 38 222 0.0 0.0 0.00 0.00 0.00 99 1018.3
20260505075816 38 225 0.0 0.0 0.00 0.00 0.00 99 1018.3
20260505075313 38 222 0.0 0.0 0.00 0.00 0.00 99 1018.3